KZR911 UAAA-LTFM

Flight info

Callsign KZR911
Flight time N/A
Altitude 30000
Route TIPSA1A TIPSA L855 TUROK/K0835F320 L855 ORTEG M610 DIVNO N161 TITIL/K0837F340 N161 GASBI/N0454F340 N161 LEYLA N644 ADEKI DCT BADIR DCT LAGAS DCT NOLGA UG261 TBN UM11 CRM UL746 GOKPA UM10 HAKAN UN644 GUMRU UT315 NUGBA
Aircraft A321/M-SDE3FGHIRWY/LB1

Departure

Time 2026-05-04 09:42
Airport Almaty International Airport (UAAA)

Arrival

Time N/A
Airport İstanbul Airport (LTFM)
Time Latitude Longitude Altitude Speed Heading
2026-05-04 09:09 43.34961 77.01297 2229 ft 0 kts 246°
2026-05-04 09:25 43.34964 77.01308 2223 ft 2 kts 243°
2026-05-04 09:25 43.34971 77.01328 2223 ft 2 kts 241°
2026-05-04 09:26 43.34978 77.01349 2225 ft 2 kts 242°
2026-05-04 09:26 43.34986 77.01369 2224 ft 2 kts 244°
2026-05-04 09:26 43.34994 77.01389 2223 ft 2 kts 234°
2026-05-04 09:26 43.35004 77.01407 2225 ft 2 kts 216°
2026-05-04 09:27 43.35018 77.01415 2223 ft 1 kts 153°
2026-05-04 09:27 43.35020 77.01413 2225 ft 0 kts 156°
2026-05-04 09:31 43.35002 77.01423 2223 ft 6 kts 158°
2026-05-04 09:31 43.34963 77.01445 2225 ft 6 kts 157°
2026-05-04 09:31 43.34922 77.01471 2225 ft 9 kts 155°
2026-05-04 09:31 43.34857 77.01507 2226 ft 10 kts 165°
2026-05-04 09:32 43.34817 77.01574 2229 ft 10 kts 99°
2026-05-04 09:32 43.34813 77.01666 2225 ft 10 kts 93°
2026-05-04 09:34 43.34796 77.02640 2226 ft 16 kts 57°
2026-05-04 09:34 43.34873 77.02792 2224 ft 21 kts 56°
2026-05-04 09:34 43.34956 77.02961 2224 ft 24 kts 56°
2026-05-04 09:34 43.35053 77.03157 2225 ft 24 kts 55°
2026-05-04 09:35 43.35146 77.03344 2229 ft 23 kts 56°
2026-05-04 09:35 43.35239 77.03532 2225 ft 27 kts 56°
2026-05-04 09:35 43.35357 77.03771 2223 ft 31 kts 56°
2026-05-04 09:35 43.35479 77.04014 2221 ft 30 kts 56°
2026-05-04 09:37 43.36226 77.05525 2225 ft 27 kts 56°
2026-05-04 09:37 43.36333 77.05739 2224 ft 27 kts 56°
2026-05-04 09:38 43.36438 77.05952 2223 ft 27 kts 56°
2026-05-04 09:38 43.36542 77.06161 2222 ft 26 kts 55°
2026-05-04 09:38 43.36644 77.06367 2224 ft 28 kts 56°
2026-05-04 09:38 43.36753 77.06589 2228 ft 28 kts 56°
2026-05-04 09:39 43.36852 77.06789 2227 ft 22 kts 55°
2026-05-04 09:39 43.36916 77.06917 2226 ft 15 kts 56°
2026-05-04 09:39 43.36974 77.07034 2225 ft 15 kts 52°
2026-05-04 09:39 43.37019 77.07020 2227 ft 7 kts 250°
2026-05-04 09:40 43.36985 77.06976 2224 ft 6 kts 205°
2026-05-04 09:40 43.36945 77.06952 2224 ft 6 kts 210°
2026-05-04 09:40 43.36913 77.06910 2226 ft 6 kts 234°
2026-05-04 09:40 43.36888 77.06860 2226 ft 6 kts 236°
2026-05-04 09:41 43.36845 77.06774 2228 ft 31 kts 236°
2026-05-04 09:42 43.32139 76.97417 3957 ft 233 kts 236°
2026-05-04 09:43 43.31211 76.95488 4228 ft 248 kts 240°
2026-05-04 09:43 43.30742 76.93192 4538 ft 258 kts 276°
2026-05-04 09:43 43.31377 76.90915 5011 ft 262 kts 311°
2026-05-04 09:43 43.32852 76.89447 5525 ft 266 kts 334°
2026-05-04 09:44 43.34585 76.88516 6172 ft 268 kts 339°
2026-05-04 09:44 43.36321 76.87652 6761 ft 269 kts 339°
2026-05-04 09:44 43.38086 76.86775 7305 ft 271 kts 340°
2026-05-04 09:46 43.47758 76.74419 10271 ft 314 kts 294°
2026-05-04 09:46 43.48605 76.71560 10399 ft 330 kts 294°
2026-05-04 09:46 43.49482 76.68611 10518 ft 344 kts 294°
2026-05-04 09:47 43.50408 76.65488 10693 ft 356 kts 294°
2026-05-04 09:47 43.51346 76.62305 11062 ft 361 kts 293°
2026-05-04 09:49 43.58105 76.39177 14087 ft 382 kts 292°
2026-05-04 09:49 43.59094 76.35764 14502 ft 383 kts 292°
2026-05-04 09:49 43.59885 76.32246 14899 ft 386 kts 282°
2026-05-04 09:51 43.61077 76.09907 17378 ft 394 kts 274°
2026-05-04 09:51 43.61251 76.06130 17769 ft 395 kts 274°
2026-05-04 09:51 43.61427 76.02330 18146 ft 397 kts 274°
2026-05-04 09:51 43.61604 75.98527 18487 ft 398 kts 274°
2026-05-04 09:52 43.61781 75.94704 18792 ft 400 kts 274°
2026-05-04 09:52 43.61956 75.90869 19105 ft 401 kts 273°
2026-05-04 09:52 43.62128 75.87012 19412 ft 403 kts 273°
2026-05-04 09:52 43.62299 75.83142 19719 ft 404 kts 273°
2026-05-04 09:53 43.62468 75.79263 20019 ft 406 kts 273°
2026-05-04 09:53 43.62638 75.75359 20316 ft 408 kts 273°
2026-05-04 09:53 43.62808 75.71448 20614 ft 409 kts 272°
2026-05-04 09:53 43.62975 75.67568 20905 ft 411 kts 272°
2026-05-04 09:54 43.63142 75.63612 21199 ft 412 kts 272°
2026-05-04 09:54 43.63305 75.59651 21485 ft 414 kts 272°
2026-05-04 09:54 43.63469 75.55672 21772 ft 415 kts 272°
2026-05-04 09:54 43.63815 75.51698 22044 ft 418 kts 281°
2026-05-04 09:55 43.64487 75.47789 22327 ft 419 kts 283°
2026-05-04 09:55 43.65168 75.43858 22599 ft 421 kts 282°
2026-05-04 09:55 43.65843 75.39916 22870 ft 423 kts 282°
2026-05-04 09:55 43.66517 75.35952 23134 ft 425 kts 282°
2026-05-04 09:56 43.67191 75.31971 23405 ft 426 kts 282°
2026-05-04 09:56 43.67865 75.27971 23662 ft 428 kts 282°
2026-05-04 09:56 43.68533 75.24010 23879 ft 430 kts 282°
2026-05-04 09:56 43.69210 75.19992 24114 ft 431 kts 282°
2026-05-04 09:57 43.69888 75.15948 24348 ft 432 kts 282°
2026-05-04 09:57 43.70569 75.11886 24577 ft 433 kts 282°
2026-05-04 09:57 43.71248 75.07831 24803 ft 434 kts 282°
2026-05-04 09:57 43.71930 75.03745 25029 ft 435 kts 282°
2026-05-04 09:58 43.72608 74.99663 25253 ft 436 kts 282°
2026-05-04 09:58 43.73290 74.95557 25467 ft 437 kts 282°
2026-05-04 09:58 43.73971 74.91455 25683 ft 439 kts 281°
2026-05-04 10:00 43.78753 74.62406 27206 ft 447 kts 281°
2026-05-04 10:00 43.79439 74.58200 27416 ft 449 kts 281°
2026-05-04 10:02 43.84000 74.28390 28711 ft 454 kts 274°
2026-05-04 10:04 43.86074 73.97950 30056 ft 450 kts 274°
2026-05-04 10:04 43.86639 73.89474 30075 ft 441 kts 274°
2026-05-04 10:05 43.87196 73.81023 30075 ft 440 kts 274°
2026-05-04 10:05 43.87746 73.72527 30071 ft 440 kts 274°
2026-05-04 10:06 43.88282 73.64132 30076 ft 440 kts 274°
2026-05-04 10:06 43.88824 73.55657 30078 ft 440 kts 273°
2026-05-04 10:08 43.90649 73.26042 30074 ft 441 kts 273°
2026-05-04 10:08 43.91159 73.17622 30080 ft 441 kts 273°
2026-05-04 10:09 43.91669 73.09141 30085 ft 442 kts 273°
2026-05-04 10:09 43.92173 73.00647 30086 ft 442 kts 273°
2026-05-04 10:10 43.92662 72.92133 30091 ft 442 kts 272°
2026-05-04 10:10 43.93148 72.83635 30091 ft 442 kts 272°
2026-05-04 10:11 43.93625 72.75113 30088 ft 442 kts 272°
2026-05-04 10:11 43.94089 72.66654 30085 ft 442 kts 272°
2026-05-04 10:12 43.94555 72.58148 30085 ft 442 kts 272°
2026-05-04 10:12 43.95022 72.49622 30091 ft 442 kts 272°
2026-05-04 10:13 43.95480 72.41100 30093 ft 443 kts 272°
2026-05-04 10:13 43.95930 72.32553 30086 ft 443 kts 272°
2026-05-04 10:14 43.96370 72.24079 30089 ft 443 kts 272°
2026-05-04 10:16 43.98077 71.89911 30078 ft 443 kts 272°
2026-05-04 10:16 43.98902 71.82891 30071 ft 444 kts 279°
2026-05-04 10:17 44.00314 71.73103 30061 ft 444 kts 279°
2026-05-04 10:19 44.05065 71.39414 30048 ft 445 kts 279°
2026-05-04 10:19 44.06041 71.32386 30041 ft 445 kts 279°
2026-05-04 10:20 44.07216 71.23931 30043 ft 445 kts 279°
2026-05-04 10:20 44.08389 71.15462 30046 ft 446 kts 279°
2026-05-04 10:21 44.09545 71.06971 30041 ft 446 kts 279°
2026-05-04 10:21 44.10696 70.98484 30038 ft 446 kts 279°
2026-05-04 10:22 44.12422 70.85779 30035 ft 447 kts 279°
2026-05-04 10:23 44.13572 70.77272 30038 ft 447 kts 279°
2026-05-04 10:25 44.18070 70.43223 30038 ft 447 kts 278°
2026-05-04 10:25 44.19193 70.34685 30039 ft 448 kts 279°
2026-05-04 10:26 44.20325 70.26140 30048 ft 448 kts 279°
2026-05-04 10:26 44.21428 70.17638 30041 ft 448 kts 278°
2026-05-04 10:27 44.22531 70.09077 30046 ft 449 kts 278°
2026-05-04 10:27 44.23634 70.00497 30048 ft 449 kts 279°
2026-05-04 10:28 44.24730 69.91915 30040 ft 449 kts 278°
2026-05-04 10:28 44.25809 69.83371 30036 ft 450 kts 279°
2026-05-04 10:29 44.26899 69.74769 30039 ft 451 kts 279°
2026-05-04 10:29 44.27984 69.66156 30035 ft 451 kts 278°
2026-05-04 10:30 44.29059 69.57507 30034 ft 452 kts 279°
2026-05-04 10:30 44.30128 69.48851 30044 ft 452 kts 278°
2026-05-04 10:31 44.31185 69.40186 30043 ft 453 kts 278°
2026-05-04 10:32 44.34867 69.09761 30047 ft 455 kts 278°
2026-05-04 10:33 44.35902 69.01078 30053 ft 456 kts 278°
2026-05-04 10:33 44.36944 68.92322 30052 ft 456 kts 278°
2026-05-04 10:34 44.37975 68.83570 30056 ft 456 kts 278°
2026-05-04 10:34 44.38991 68.74821 30056 ft 456 kts 278°
2026-05-04 10:35 44.40006 68.66059 30063 ft 456 kts 278°
2026-05-04 10:35 44.41013 68.57350 30066 ft 456 kts 278°
2026-05-04 10:36 44.42017 68.48575 30057 ft 456 kts 278°
2026-05-04 10:36 44.43008 68.39808 30059 ft 456 kts 278°
2026-05-04 10:37 44.43997 68.31043 30057 ft 456 kts 278°
2026-05-04 10:37 44.44983 68.22258 30061 ft 456 kts 278°
2026-05-04 10:39 44.48198 67.91520 30062 ft 456 kts 278°
2026-05-04 10:40 44.49106 67.82728 30057 ft 456 kts 278°
2026-05-04 10:40 44.50005 67.73977 30051 ft 457 kts 277°
2026-05-04 10:41 44.50890 67.65160 30058 ft 457 kts 277°
2026-05-04 10:41 44.51764 67.56336 30051 ft 457 kts 277°
2026-05-04 10:42 44.52661 67.47514 30053 ft 457 kts 278°
2026-05-04 10:42 44.53576 67.38686 30045 ft 457 kts 278°
2026-05-04 10:43 44.54484 67.29918 30045 ft 457 kts 278°
2026-05-04 10:45 44.58025 66.94704 30042 ft 455 kts 279°
2026-05-04 10:45 44.58459 66.90300 29875 ft 455 kts 280°
2026-05-04 10:45 44.58881 66.85959 30027 ft 446 kts 279°
2026-05-04 10:46 44.59715 66.77388 30022 ft 442 kts 279°
2026-05-04 10:46 44.60551 66.68745 30017 ft 451 kts 278°
2026-05-04 10:47 44.61381 66.59966 30016 ft 454 kts 278°
2026-05-04 10:47 44.62155 66.51199 30018 ft 455 kts 277°
2026-05-04 10:49 44.65007 66.15693 30008 ft 459 kts 277°
2026-05-04 10:50 44.65716 66.06803 30009 ft 460 kts 276°
2026-05-04 10:52 44.68491 65.70980 30005 ft 461 kts 276°
2026-05-04 10:52 44.69166 65.62009 30007 ft 461 kts 276°
2026-05-04 10:54 44.75075 65.27149 30017 ft 458 kts 285°
2026-05-04 10:56 44.81463 64.92541 30013 ft 456 kts 285°
2026-05-04 10:57 44.83033 64.83866 30017 ft 457 kts 285°
2026-05-04 10:57 44.84543 64.75172 30010 ft 457 kts 285°
2026-05-04 10:58 44.86017 64.66511 30023 ft 457 kts 285°
2026-05-04 10:58 44.87497 64.57801 30011 ft 457 kts 284°
2026-05-04 10:59 44.88916 64.49068 30014 ft 456 kts 284°
2026-05-04 10:59 44.90296 64.40331 30027 ft 455 kts 284°
2026-05-04 11:00 44.91678 64.31630 30030 ft 454 kts 284°
2026-05-04 11:02 44.97136 63.97039 30001 ft 448 kts 284°
2026-05-04 11:05 45.06863 63.33330 30028 ft 438 kts 283°
2026-05-04 11:06 45.08121 63.24938 30031 ft 438 kts 283°
2026-05-04 11:06 45.09372 63.16504 30036 ft 437 kts 283°
2026-05-04 11:10 45.17670 62.59501 30032 ft 430 kts 283°
2026-05-04 11:12 45.22353 62.26393 30024 ft 427 kts 283°
2026-05-04 11:12 45.23503 62.18122 30023 ft 427 kts 283°
2026-05-04 11:13 45.24643 62.09907 30020 ft 426 kts 283°
2026-05-04 11:13 45.25785 62.01656 30024 ft 425 kts 283°
2026-05-04 11:14 45.25977 62.00264 30019 ft 425 kts 283°
2026-05-04 11:16 45.31360 61.60529 30024 ft 423 kts 282°
2026-05-04 11:16 45.32444 61.52362 30026 ft 423 kts 282°
2026-05-04 11:17 45.33537 61.44150 30022 ft 422 kts 282°
2026-05-04 11:19 45.37840 61.11167 29981 ft 427 kts 278°
2026-05-04 11:19 45.38903 61.02827 29990 ft 429 kts 278°
2026-05-04 11:20 45.39978 60.94477 29998 ft 429 kts 278°
2026-05-04 11:20 45.41048 60.86105 30000 ft 430 kts 278°
2026-05-04 11:22 45.44990 60.52576 30021 ft 430 kts 277°
2026-05-04 11:23 45.45941 60.44166 30021 ft 430 kts 277°
2026-05-04 11:25 45.49234 60.14722 30028 ft 430 kts 277°
2026-05-04 11:25 45.50167 60.06333 30031 ft 430 kts 277°
2026-05-04 11:27 45.54264 59.68328 30018 ft 431 kts 277°
2026-05-04 11:28 45.55158 59.59853 30013 ft 431 kts 277°
2026-05-04 11:28 45.56043 59.51433 30007 ft 432 kts 277°
2026-05-04 11:29 45.56931 59.42937 30006 ft 432 kts 277°
2026-05-04 11:29 45.57814 59.34436 30003 ft 432 kts 277°
2026-05-04 11:33 45.63786 58.74891 29995 ft 433 kts 276°
2026-05-04 11:33 45.64620 58.66405 29990 ft 433 kts 276°
2026-05-04 11:34 45.65441 58.57861 29984 ft 433 kts 276°
2026-05-04 11:34 45.66258 58.49313 29985 ft 433 kts 275°
2026-05-04 11:35 45.67066 58.40768 29982 ft 433 kts 275°
2026-05-04 11:35 45.67860 58.32287 29974 ft 433 kts 275°
2026-05-04 11:36 45.68662 58.23737 29974 ft 433 kts 275°
2026-05-04 11:36 45.69463 58.15186 29962 ft 433 kts 275°
2026-05-04 11:37 45.70249 58.06642 29954 ft 433 kts 275°
2026-05-04 11:37 45.71027 57.98083 29947 ft 433 kts 275°
2026-05-04 11:38 45.71785 57.89583 29946 ft 433 kts 275°
2026-05-04 11:38 45.72555 57.81028 29937 ft 433 kts 275°
2026-05-04 11:39 45.73316 57.72475 29930 ft 433 kts 273°
2026-05-04 11:40 45.69151 57.48011 29924 ft 424 kts 249°
2026-05-04 11:41 45.68162 57.44040 29926 ft 424 kts 249°
2026-05-04 11:41 45.66182 57.36143 29927 ft 424 kts 248°
2026-05-04 11:42 45.64179 57.28231 29930 ft 423 kts 248°
2026-05-04 11:42 45.62171 57.20320 29922 ft 423 kts 248°
2026-05-04 11:43 45.60159 57.12414 29922 ft 423 kts 248°
2026-05-04 11:43 45.58145 57.04536 29930 ft 422 kts 248°
2026-05-04 11:44 45.56128 56.96656 29924 ft 422 kts 248°
2026-05-04 11:44 45.54125 56.88828 29927 ft 422 kts 248°
2026-05-04 11:45 45.52100 56.80969 29913 ft 422 kts 248°
2026-05-04 11:45 45.50062 56.73100 29913 ft 423 kts 248°
2026-05-04 11:46 45.48021 56.65246 29914 ft 423 kts 248°
2026-05-04 11:46 45.45974 56.57390 29911 ft 423 kts 248°
2026-05-04 11:47 45.43935 56.49592 29915 ft 423 kts 248°
2026-05-04 11:47 45.41875 56.41752 29913 ft 423 kts 248°
2026-05-04 11:48 45.39804 56.33911 29914 ft 423 kts 248°
2026-05-04 11:48 45.37732 56.26061 29909 ft 423 kts 248°
2026-05-04 11:49 45.35678 56.18272 29914 ft 423 kts 248°
2026-05-04 11:49 45.33599 56.10441 29914 ft 423 kts 248°
2026-05-04 11:50 45.31512 56.02625 29912 ft 423 kts 248°
2026-05-04 11:50 45.29420 55.94836 29914 ft 422 kts 248°
2026-05-04 11:51 45.27326 55.87033 29913 ft 422 kts 248°
2026-05-04 11:51 45.25227 55.79249 29911 ft 422 kts 248°
2026-05-04 11:52 45.23141 55.71532 29902 ft 422 kts 248°
2026-05-04 11:52 45.21041 55.63755 29891 ft 422 kts 248°
2026-05-04 11:53 45.18931 55.55966 29884 ft 422 kts 248°
2026-05-04 11:53 45.16808 55.48199 29883 ft 422 kts 248°
2026-05-04 11:55 45.07692 55.17594 29864 ft 422 kts 232°
2026-05-04 11:56 45.03597 55.11722 29861 ft 423 kts 223°
2026-05-04 11:56 44.99249 55.06105 29854 ft 423 kts 223°
2026-05-04 11:57 44.94917 55.00472 29863 ft 423 kts 223°
2026-05-04 11:57 44.91308 54.95792 29860 ft 423 kts 223°
2026-05-04 11:58 44.86973 54.90202 29865 ft 423 kts 223°
2026-05-04 11:58 44.82623 54.84615 29867 ft 422 kts 223°
2026-05-04 11:59 44.78282 54.79038 29866 ft 422 kts 223°
2026-05-04 11:59 44.73940 54.73471 29858 ft 422 kts 223°
2026-05-04 12:00 44.69591 54.67909 29857 ft 422 kts 223°
2026-05-04 12:00 44.65464 54.62063 29848 ft 421 kts 234°
2026-05-04 12:01 44.62139 54.55368 29847 ft 421 kts 236°
2026-05-04 12:02 44.50382 54.31823 29851 ft 421 kts 235°
2026-05-04 12:03 44.47015 54.25116 29845 ft 421 kts 235°
2026-05-04 12:03 44.43636 54.18406 29847 ft 421 kts 235°
2026-05-04 12:04 44.40256 54.11698 29852 ft 421 kts 235°
2026-05-04 12:04 44.36898 54.05039 29848 ft 421 kts 235°
2026-05-04 12:05 44.33507 53.98342 29843 ft 421 kts 235°
2026-05-04 12:05 44.30112 53.91675 29859 ft 421 kts 235°
2026-05-04 12:06 44.26734 53.85054 29856 ft 421 kts 234°
2026-05-04 12:06 44.23339 53.78404 29859 ft 420 kts 234°
2026-05-04 12:07 44.19948 53.71770 29849 ft 420 kts 234°
2026-05-04 12:07 44.16556 53.65141 29850 ft 419 kts 234°
2026-05-04 12:08 44.13170 53.58535 29850 ft 419 kts 234°
2026-05-04 12:08 44.09775 53.51943 29846 ft 419 kts 234°
2026-05-04 12:09 44.06373 53.45364 29860 ft 419 kts 234°
2026-05-04 12:09 44.02995 53.38836 29849 ft 419 kts 234°
2026-05-04 12:10 43.99598 53.32263 29845 ft 419 kts 234°
2026-05-04 12:10 43.96189 53.25702 29847 ft 419 kts 234°
2026-05-04 12:11 43.92779 53.19152 29850 ft 419 kts 234°
2026-05-04 12:11 43.89357 53.12594 29847 ft 419 kts 234°
2026-05-04 12:12 43.85940 53.06047 29847 ft 419 kts 234°
2026-05-04 12:12 43.82511 52.99501 29851 ft 419 kts 233°
2026-05-04 12:14 43.68764 52.73425 29859 ft 420 kts 233°
2026-05-04 12:15 43.65301 52.66910 29859 ft 420 kts 233°
2026-05-04 12:15 43.61861 52.60453 29864 ft 420 kts 233°
2026-05-04 12:16 43.58392 52.53961 29868 ft 419 kts 233°
2026-05-04 12:16 43.54928 52.47490 29870 ft 419 kts 233°
2026-05-04 12:17 43.51468 52.41033 29868 ft 418 kts 233°
2026-05-04 12:17 43.48009 52.34609 29877 ft 417 kts 232°
2026-05-04 12:18 43.44564 52.28237 29885 ft 417 kts 232°
2026-05-04 12:18 43.41106 52.21837 29884 ft 416 kts 232°
2026-05-04 12:19 43.37638 52.15440 29883 ft 416 kts 232°
2026-05-04 12:19 43.34174 52.09056 29881 ft 416 kts 232°
2026-05-04 12:20 43.30727 52.02717 29884 ft 416 kts 232°
2026-05-04 12:20 43.27257 51.96354 29885 ft 416 kts 232°
2026-05-04 12:21 43.23779 51.89997 29893 ft 416 kts 232°
2026-05-04 12:21 43.20311 51.83644 29898 ft 415 kts 232°
2026-05-04 12:22 43.16841 51.77319 29905 ft 415 kts 232°
2026-05-04 12:22 43.13394 51.71054 29906 ft 414 kts 232°
2026-05-04 12:23 43.09924 51.64770 29908 ft 413 kts 232°
2026-05-04 12:23 43.06456 51.58492 29908 ft 413 kts 232°
2026-05-04 12:24 43.02998 51.52236 29912 ft 412 kts 232°
2026-05-04 12:24 42.99524 51.45985 29910 ft 412 kts 232°
2026-05-04 12:25 42.96083 51.39790 29911 ft 411 kts 232°
2026-05-04 12:25 42.92630 51.33569 29917 ft 410 kts 232°
2026-05-04 12:26 42.89172 51.27369 29919 ft 410 kts 231°
2026-05-04 12:26 42.85720 51.21200 29921 ft 409 kts 231°
2026-05-04 12:27 42.82288 51.15083 29923 ft 408 kts 231°
2026-05-04 12:27 42.78839 51.08945 29923 ft 407 kts 232°
2026-05-04 12:28 42.75399 51.02828 29923 ft 406 kts 232°
2026-05-04 12:28 42.71960 50.96724 29921 ft 406 kts 232°
2026-05-04 12:29 42.68524 50.90636 29920 ft 405 kts 232°
2026-05-04 12:29 42.65112 50.84612 29922 ft 404 kts 232°
2026-05-04 12:30 42.61678 50.78565 29919 ft 404 kts 232°
2026-05-04 12:30 42.58240 50.72522 29920 ft 403 kts 232°
2026-05-04 12:31 42.54813 50.66510 29919 ft 403 kts 232°
2026-05-04 12:31 42.51381 50.60503 29923 ft 402 kts 232°
2026-05-04 12:32 42.46258 50.51555 29923 ft 401 kts 232°
2026-05-04 12:33 42.42831 50.45567 29918 ft 401 kts 233°
2026-05-04 12:33 42.39582 50.39491 29917 ft 400 kts 235°
2026-05-04 12:34 42.36388 50.33327 29918 ft 400 kts 235°
2026-05-04 12:34 42.33175 50.27192 29917 ft 399 kts 234°
2026-05-04 12:35 42.29938 50.21073 29919 ft 399 kts 234°
2026-05-04 12:35 42.26711 50.15037 29915 ft 398 kts 234°
2026-05-04 12:36 42.23474 50.08970 29911 ft 398 kts 234°
2026-05-04 12:36 42.20241 50.02911 29916 ft 397 kts 234°
2026-05-04 12:37 42.17009 49.96864 29911 ft 396 kts 234°
2026-05-04 12:37 42.13776 49.90851 29910 ft 396 kts 234°
2026-05-04 12:38 42.10543 49.84845 29913 ft 395 kts 234°
2026-05-04 12:38 42.07337 49.78894 29913 ft 395 kts 235°
2026-05-04 12:39 42.04120 49.72913 29914 ft 394 kts 235°
2026-05-04 12:39 42.00902 49.66952 29915 ft 393 kts 234°
2026-05-04 12:40 41.97674 49.61013 29909 ft 393 kts 234°
2026-05-04 12:40 41.94472 49.55117 29909 ft 392 kts 235°
2026-05-04 12:41 41.91259 49.49208 29906 ft 391 kts 235°
2026-05-04 12:41 41.88047 49.43311 29911 ft 390 kts 235°
2026-05-04 12:42 41.84844 49.37440 29911 ft 389 kts 235°
2026-05-04 12:42 41.81641 49.31590 29912 ft 389 kts 235°
2026-05-04 12:43 41.78541 49.25666 29914 ft 388 kts 237°
2026-05-04 12:43 41.75579 49.19621 29918 ft 387 kts 238°
2026-05-04 12:44 41.72649 49.13627 29913 ft 387 kts 237°
2026-05-04 12:44 41.69671 49.07628 29908 ft 386 kts 237°
2026-05-04 12:45 41.67185 49.02669 29909 ft 386 kts 237°
2026-05-04 12:45 41.64192 48.96707 29910 ft 386 kts 237°
2026-05-04 12:46 41.61205 48.90757 29909 ft 385 kts 237°
2026-05-04 12:46 41.58213 48.84809 29906 ft 385 kts 237°
2026-05-04 12:47 41.55221 48.78878 29910 ft 385 kts 237°
2026-05-04 12:47 41.52211 48.72945 29907 ft 385 kts 236°
2026-05-04 12:48 41.49074 48.67196 29900 ft 386 kts 234°
2026-05-04 12:48 41.45817 48.61488 29896 ft 386 kts 234°
2026-05-04 12:49 41.42571 48.55774 29887 ft 387 kts 234°
2026-05-04 12:49 41.39380 48.50000 29880 ft 387 kts 236°
2026-05-04 12:50 41.36240 48.44174 29871 ft 387 kts 236°
2026-05-04 12:50 41.33094 48.38354 29866 ft 387 kts 235°
2026-05-04 12:51 41.29946 48.32584 29864 ft 387 kts 235°
2026-05-04 12:51 41.26770 48.26800 29866 ft 387 kts 235°
2026-05-04 12:52 41.23591 48.21017 29870 ft 388 kts 235°
2026-05-04 12:52 41.20417 48.15227 29870 ft 388 kts 235°
2026-05-04 12:53 41.17232 48.09444 29875 ft 387 kts 235°
2026-05-04 12:53 41.14048 48.03658 29882 ft 387 kts 237°
2026-05-04 12:53 41.12769 48.00533 29887 ft 385 kts 248°
2026-05-04 12:54 41.12016 47.97171 29892 ft 387 kts 258°
2026-05-04 12:54 41.11813 47.93560 29888 ft 390 kts 269°
2026-05-04 12:54 41.12186 47.90023 29889 ft 395 kts 277°
2026-05-04 12:55 41.13328 47.82893 29898 ft 394 kts 276°
2026-05-04 12:55 41.14435 47.75753 29890 ft 394 kts 276°
2026-05-04 12:56 41.15533 47.68636 29885 ft 394 kts 276°
2026-05-04 12:56 41.16625 47.61581 29887 ft 393 kts 276°
2026-05-04 12:57 41.17721 47.54469 29891 ft 393 kts 276°
2026-05-04 12:57 41.18820 47.47354 29890 ft 393 kts 276°
2026-05-04 12:58 41.19915 47.40249 29899 ft 392 kts 276°
2026-05-04 12:58 41.20998 47.33153 29906 ft 392 kts 276°
2026-05-04 12:59 41.22069 47.26087 29914 ft 392 kts 276°
2026-05-04 12:59 41.23140 47.18968 29915 ft 393 kts 276°
2026-05-04 13:00 41.24207 47.11854 29909 ft 392 kts 275°
2026-05-04 13:00 41.25268 47.04747 29913 ft 392 kts 275°
2026-05-04 13:01 41.26331 46.97623 29917 ft 392 kts 275°
2026-05-04 13:01 41.27382 46.90555 29925 ft 392 kts 275°
2026-05-04 13:02 41.28433 46.83443 29923 ft 392 kts 275°
2026-05-04 13:02 41.29481 46.76314 29932 ft 392 kts 275°
2026-05-04 13:03 41.30507 46.69191 29942 ft 392 kts 274°
2026-05-04 13:03 41.31503 46.62069 29939 ft 392 kts 274°
2026-05-04 13:04 41.32487 46.54942 29937 ft 392 kts 274°
2026-05-04 13:04 41.33475 46.47852 29927 ft 392 kts 274°
2026-05-04 13:05 41.34472 46.40708 29924 ft 392 kts 274°
2026-05-04 13:05 41.35455 46.33574 29909 ft 392 kts 274°
2026-05-04 13:06 41.36429 46.26428 29902 ft 392 kts 274°
2026-05-04 13:06 41.37403 46.19280 29902 ft 392 kts 274°
2026-05-04 13:07 41.38379 46.12130 29901 ft 393 kts 274°
2026-05-04 13:07 41.39344 46.05011 29898 ft 393 kts 274°
2026-05-04 13:08 41.40307 45.97834 29893 ft 394 kts 274°
2026-05-04 13:08 41.41266 45.90641 29894 ft 395 kts 274°
2026-05-04 13:09 41.42229 45.83440 29890 ft 395 kts 274°
2026-05-04 13:09 41.43186 45.76216 29891 ft 395 kts 273°
2026-05-04 13:10 41.44133 45.68989 29891 ft 396 kts 273°
2026-05-04 13:10 41.45087 45.61736 29893 ft 397 kts 273°
2026-05-04 13:11 41.46031 45.54537 29887 ft 397 kts 273°
2026-05-04 13:11 41.46975 45.47286 29890 ft 397 kts 273°
2026-05-04 13:12 41.47914 45.40014 29887 ft 397 kts 273°
2026-05-04 13:12 41.48764 45.32743 29894 ft 396 kts 270°
2026-05-04 13:13 41.49353 45.25443 29890 ft 395 kts 269°
2026-05-04 13:13 41.49874 45.18181 29896 ft 396 kts 269°
2026-05-04 13:14 41.50445 45.10849 29896 ft 397 kts 270°
2026-05-04 13:14 41.51043 45.03499 29897 ft 398 kts 270°
2026-05-04 13:15 41.51638 44.96180 29899 ft 399 kts 270°
2026-05-04 13:15 41.52222 44.88817 29897 ft 399 kts 269°
2026-05-04 13:16 41.52795 44.81430 29896 ft 400 kts 269°
2026-05-04 13:16 41.53368 44.74029 29893 ft 401 kts 269°
2026-05-04 13:17 41.53944 44.66615 29895 ft 402 kts 269°
2026-05-04 13:17 41.54510 44.59224 29899 ft 403 kts 269°
2026-05-04 13:18 41.55076 44.51772 29890 ft 404 kts 269°
2026-05-04 13:18 41.55636 44.44303 29890 ft 404 kts 269°
2026-05-04 13:19 41.56193 44.36856 29890 ft 405 kts 269°
2026-05-04 13:19 41.56747 44.29353 29878 ft 406 kts 269°
2026-05-04 13:20 41.57030 44.21842 29872 ft 399 kts 259°
2026-05-04 13:20 41.56261 44.14577 29866 ft 397 kts 256°
2026-05-04 13:21 41.55452 44.07260 29860 ft 398 kts 256°
2026-05-04 13:21 41.54639 43.99940 29858 ft 399 kts 256°
2026-05-04 13:22 41.53817 43.92595 29848 ft 400 kts 256°
2026-05-04 13:22 41.52997 43.85227 29848 ft 401 kts 255°
2026-05-04 13:23 41.52172 43.77876 29838 ft 402 kts 256°
2026-05-04 13:23 41.51329 43.70495 29831 ft 403 kts 255°
2026-05-04 13:24 41.50481 43.63100 29823 ft 403 kts 255°
2026-05-04 13:24 41.49631 43.55698 29821 ft 404 kts 255°
2026-05-04 13:25 41.48348 43.44647 29816 ft 403 kts 255°
2026-05-04 13:25 41.47486 43.37258 29805 ft 403 kts 255°
2026-05-04 13:26 41.46621 43.29818 29804 ft 404 kts 255°
2026-05-04 13:26 41.45753 43.22458 29796 ft 403 kts 255°
2026-05-04 13:27 41.45456 43.19960 29795 ft 404 kts 255°